Powrót do katalogu

BREEZE-M DEB

LostHEO
NORAD 34234·DEBRIS·🇷🇺 Russia

Wystrzelony Feb 28, 2006 z Baikonur Cosmodrome

Loading…

Następne Przeloty (najbliższe 24 godziny)

TLE

NieaktualneSource: Space-Track

Epoka: Jul 10, 2023, 01:03 UTC

1 34234U 06006AZ  23191.04440654  .00005818  00000-0  37919-2 0  9994
2 34234  51.6142  77.7259 4674997 193.4659 147.8282  6.01671239311739

Śledź BREEZE-M DEB w czasie rzeczywistym z AllMySat

Download on the App Store